User: anonymous   Login
Location: Austin
(30.3000°N, 97.7500°W)
Time: 14:16:27
(UTC-05:00)
Language:

CZ-2C R/B - Orbit

View from above orbital plane
View from above orbital plane
View from above satellite
View from above satellite

Ground track
Ground track

The orbit data is extracted from the following two-line orbital elements,

1 28480U 04046B   24165.58144602  .00000200  00000-0  90579-4 0  9990
2 28480  98.1622 110.0458 0139601 229.6992 129.1922 14.26382662 18083
Epoch (UTC): 13 June 2024 13:57:16
Eccentricity: 0.0139601
inclination: 98.1622°
perigee height: 703 km
apogee height: 904 km
right ascension of ascending node: 110.0458°
argument of perigee: 229.6992°
revolutions per day: 14.26382662
mean anomaly at epoch: 129.1922°
orbit number at epoch: 1808

The dashed part of the orbit path shows where the satellite is in the earth's shadow,  

DLR